CENTRE DE TELECHARGEMENT

ADAMSON LAB.GRUPPEN LAKE MDC XTA DV2 PRODUCT TANNOY WAVECAPTURE DIGICO
ALL PRESETS SOFTWARE DRAWING BROCHURE MANUAL MORE...
Nom du fichier Date Taille Téléchargement
----------------------------------------- ----------------------------------------- ----------------------------------------- -----------------------------------------

PRESETS
IPD-Lab-Library-v1.1.zip 29 Jan 2016 17:20:45 5544 Ko
IPD-PRESET-LIBRARY-V1.06.pdf 04 Apr 2016 14:09:51 25 Ko
IPD-PRESET-LIBRARY-V1.06.zip 04 Apr 2016 14:09:02 1210 Ko
IPDLoadLibrary-(v1.1).pdf 29 Jan 2016 17:20:45 63 Ko

SOFTWARE
IntelliDrive-Controller-Ver-1.2.8.zip 29 Jan 2016 17:21:06 68283 Ko

DRAWING
C10.8X.dwg 29 Jan 2016 17:20:36 711 Ko
C16.4.dwg 29 Jan 2016 17:20:36 202 Ko
C20.8X.dwg 29 Jan 2016 17:20:36 661 Ko
C28.4.dwg 29 Jan 2016 17:20:36 202 Ko
C48.4.dwg 29 Jan 2016 17:20:36 202 Ko
C5.8X.dwg 29 Jan 2016 17:20:36 606 Ko
C68.4.dwg 29 Jan 2016 17:20:36 206 Ko
C88.4.dwg 29 Jan 2016 17:20:37 202 Ko
D120.4.dwg 29 Jan 2016 17:20:37 2713 Ko
D200.4.dwg 29 Jan 2016 17:20:38 2719 Ko
D80.4.dwg 29 Jan 2016 17:20:39 2718 Ko
E12-2.dwg 29 Jan 2016 17:20:39 356 Ko
E4-2.dwg 29 Jan 2016 17:20:39 334 Ko
E8-2.dwg 29 Jan 2016 17:20:39 338 Ko
IPD1200.dwg 29 Jan 2016 17:20:39 457 Ko
IPD2400.dwg 29 Jan 2016 17:20:39 452 Ko
LM26.dwg 29 Jan 2016 17:20:39 439 Ko
PLM10KQ.dwg 29 Jan 2016 17:20:39 471 Ko
PLM12K44.dwg 29 Jan 2016 17:20:39 548 Ko
PLM20K44.dwg 29 Jan 2016 17:20:40 548 Ko
PLM20KQ.dwg 29 Jan 2016 17:20:40 472 Ko
SG300.dwg 29 Jan 2016 17:20:40 296 Ko

DOCUMENTATION
TOURING PLM+ SERIES
PLM20K44-12K44_EN.pdf 29 Jan 2016 17:24:13 422 Ko
PLM20K44-12K44_EN.pdf 29 Jan 2016 17:24:13 422 Ko
PLM5K44_EN.pdf 19 Jan 2018 09:59:10 9898 Ko
TOURING FP+ SERIES
FP14000_EN.pdf 29 Jan 2016 17:24:04 234 Ko
FP10000Q_EN.pdf 29 Jan 2016 17:24:04 251 Ko
FP9000_EN.pdf 29 Jan 2016 17:24:05 234 Ko
FP7000_EN.pdf 29 Jan 2016 17:24:05 556 Ko
FP6000Q_EN.pdf 29 Jan 2016 17:24:05 265 Ko
FP4000_EN.pdf 29 Jan 2016 17:24:05 225 Ko
NLB60E_EN.pdf 29 Jan 2016 17:24:11 4552 Ko
INSTALLATION D SERIES
D-series_EN.pdf 29 Jan 2016 17:23:57 550 Ko
D-series_EN.pdf 29 Jan 2016 17:23:57 550 Ko
D-series_EN.pdf 29 Jan 2016 17:23:57 550 Ko
D-series-tesira_EN.pdf 29 Jan 2016 17:23:57 676 Ko
D-series-tesira_EN.pdf 29 Jan 2016 17:23:57 676 Ko
D-series-tesira_EN.pdf 29 Jan 2016 17:23:57 676 Ko
D40-D20-D10_EN.pdf 11 May 2017 09:29:23 2072 Ko
D40-D20-D10_EN.pdf 11 May 2017 09:29:23 2072 Ko
D40-D20-D10_EN.pdf 11 May 2017 09:29:23 2072 Ko
INSTALLATION C SERIES
C88-4_EN.pdf 29 Jan 2016 17:23:56 523 Ko
C68-4_EN.pdf 29 Jan 2016 17:23:56 558 Ko
C48-4_EN.pdf 29 Jan 2016 17:23:55 2273 Ko
C28-4_EN.pdf 29 Jan 2016 17:23:55 558 Ko
C16-4_EN.pdf 29 Jan 2016 17:23:55 558 Ko
C20-8X_EN.pdf 29 Jan 2016 17:23:55 247 Ko
C10-8X_EN.pdf 29 Jan 2016 17:23:55 247 Ko
C10-4X_EN.pdf 29 Jan 2016 17:23:54 233 Ko
C5-4X_EN.pdf 29 Jan 2016 17:23:55 233 Ko
NLB60E_EN.pdf 29 Jan 2016 17:24:11 4552 Ko
INSTALLATION E SERIES
E12-2_EN.pdf 29 Jan 2016 17:24:03 317 Ko
E8-2_EN.pdf 29 Jan 2016 17:24:04 317 Ko
E4-2_EN.pdf 29 Jan 2016 17:24:04 317 Ko
IPD SERIES
IPD_series_EN.pdf 29 Jan 2016 17:24:05 513 Ko
IPD_series_EN.pdf 29 Jan 2016 17:24:05 513 Ko
ARCHIVES PRODUITS LAB.GRUPPEN
PLM20000Q_EN.pdf 29 Jan 2016 17:24:12 799 Ko
PLM14000_EN.pdf 29 Jan 2016 17:24:12 720 Ko
PLM10000Q_EN.pdf 29 Jan 2016 17:24:11 587 Ko
FP13000_EN.pdf 29 Jan 2016 17:24:04 246 Ko
FP6400_EN.pdf 29 Jan 2016 17:24:05 1167 Ko
FP3400_EN.pdf 29 Jan 2016 17:24:04 63 Ko
FP2600_EN.pdf 29 Jan 2016 17:24:04 63 Ko
FP2200_EN.pdf 29 Jan 2016 17:24:04 63 Ko
FP2400Q_EN.pdf 01 Jan 1970 00:00:00 0 Ko
iP2100_EN.pdf 29 Jan 2016 17:24:05 28 Ko
iP1350_EN.pdf 29 Jan 2016 17:24:05 50 Ko
iP900_EN.pdf 29 Jan 2016 17:24:05 28 Ko
iP450_EN.pdf 29 Jan 2016 17:24:05 24 Ko

TECH. INFO
C-10-4X--Current-Draw-and-Thermal-Dissipation.pdf 29 Jan 2016 17:20:59 118 Ko
C-10-8X--Current-Draw-and-Thermal-Dissipation.pdf 29 Jan 2016 17:20:59 119 Ko
C-20-8X--Current-Draw-and-Thermal-Dissipation.pdf 29 Jan 2016 17:20:59 112 Ko
C-28-4-Current-Draw-and-Thermal-Dissipation.pdf 29 Jan 2016 17:20:59 103 Ko
C-48-4-Current-Draw-and-Thermal-Dissipation.pdf 29 Jan 2016 17:20:59 103 Ko
C-5-4X-Current-Draw-and-Thermal-Dissipation.pdf 29 Jan 2016 17:20:59 109 Ko
C-68-4-Current-Draw-and-Thermal-Dissipation.pdf 29 Jan 2016 17:20:59 103 Ko
C-88-4-Current-Draw-and-Thermal-Dissipation.pdf 29 Jan 2016 17:20:59 143 Ko
C-Series--C-20-8X-C-10-8X-C-10-4X-C-5-4X-Operation-Manual.pdf 29 Jan 2016 17:21:00 4182 Ko
C-Series-10-4X-AE-Sheet.pdf 29 Jan 2016 17:21:00 63 Ko
C-Series-16-4-AE-Sheet.pdf 29 Jan 2016 17:21:01 78 Ko
C-Series-48-4-AE-Sheet.pdf 29 Jan 2016 17:21:01 78 Ko
C-Series-68-4-AE-Sheet.pdf 29 Jan 2016 17:21:01 79 Ko
C-Series-88-4-AE-Sheet.pdf 29 Jan 2016 17:21:01 78 Ko
C-Series-C-16-4-Input-Sensitivity.pdf 29 Jan 2016 17:21:01 130 Ko
C-Series-C-20-8X--C-10-8X--C-10-4X--C-5-4X-Voltage-Peak-Limiter-Load-vs-Power-Tables.pdf 29 Jan 2016 17:21:01 128 Ko
C-Series-C-28-4-Input-Sensitivity.pdf 29 Jan 2016 17:21:01 134 Ko
C-Series-C-48-4-Input-Sensitivity.pdf 29 Jan 2016 17:21:01 134 Ko
C-Series-C-68-4---C-48-4---C-28-4---C-16-4-Voltage-Peak-Limiter-Load-vs-Power-Tables.pdf 29 Jan 2016 17:21:01 214 Ko
C-Series-C-68-4-Input-Sensitivity.pdf 29 Jan 2016 17:21:01 134 Ko
C-Series-C-88-4-C-68-4-C-48-4-C-28-4-C-16-4-Operation-Manual.pdf 29 Jan 2016 17:21:01 1928 Ko
Class-TD--Regulated-SMPS-and-Intercooler-Explained.pdf 29 Jan 2016 17:21:01 577 Ko
D-Series-120-4L-AE-Sheet.pdf 29 Jan 2016 17:21:02 76 Ko
D-Series-200-4L-AE-Sheet.pdf 29 Jan 2016 17:21:02 76 Ko
D-Series-200-4T-4Ta-AE-Sheet.pdf 29 Jan 2016 17:21:02 147 Ko
D-Series-80-4L-AE-Sheet.pdf 29 Jan 2016 17:21:02 76 Ko
D-Series-80-4T-4Ta-AE-Sheet.pdf 29 Jan 2016 17:21:02 146 Ko
D-Series-Tesira-Quick-Start-Guide.pdf 29 Jan 2016 17:21:06 15428 Ko
E-12-2-AE-Sheet.pdf 29 Jan 2016 17:21:06 69 Ko
E-12-2-Current-Draw-and-Thermal-Dissipation.pdf 29 Jan 2016 17:21:06 207 Ko
E-4-2-AE-Sheet.pdf 29 Jan 2016 17:21:06 69 Ko
E-4-2-Current-Draw-and-Thermal-Dissipation.pdf 29 Jan 2016 17:21:06 205 Ko
E-8-2-AE-Sheet.pdf 29 Jan 2016 17:21:06 69 Ko
E-8-2-Current-Draw-and-Thermal-Dissipation.pdf 29 Jan 2016 17:21:06 195 Ko
E-Series-Operation-Manual.pdf 29 Jan 2016 17:21:06 528 Ko
E-Series-Quick-Start-Guide---Multilingual.pdf 29 Jan 2016 17:21:07 3253 Ko
FP+-10000-AE-Sheet.pdf 29 Jan 2016 17:21:06 70 Ko
FP+-10000Q-Current-Draw-and-Thermal-Dissipation.pdf 29 Jan 2016 17:21:06 154 Ko
FP+-14000-AE-Sheet.pdf 29 Jan 2016 17:21:06 70 Ko
FP+-14000-Current-Draw-and-Thermal-Dissipation.pdf 29 Jan 2016 17:21:06 168 Ko
FP+-14000-Input-Sensitivity.pdf 29 Jan 2016 17:21:06 104 Ko
FP+-4000-AE-Sheet.pdf 29 Jan 2016 17:21:06 70 Ko
FP+-4000-Current-Draw-and-Thermal-Dissipation.pdf 29 Jan 2016 17:21:06 138 Ko
FP+-6000-AE-Sheet.pdf 29 Jan 2016 17:21:06 71 Ko
FP+-6000Q-Current-Draw-and-Thermal-Dissipation.pdf 29 Jan 2016 17:21:06 151 Ko
FP+-7000-AE-Sheet.pdf 29 Jan 2016 17:21:06 70 Ko
FP+-7000-Current-Draw-and-Thermal-Dissipation.pdf 29 Jan 2016 17:21:06 138 Ko
FP+-9000-AE-Sheet.pdf 29 Jan 2016 17:21:06 70 Ko
FP+-9000-Current-Draw-and-Thermal-Dissipation.pdf 29 Jan 2016 17:21:06 139 Ko
Fp+-Series-Operation-Manual-Device-Control.pdf 29 Jan 2016 17:21:07 1683 Ko
Fp+-Series-Operation-Manual.pdf 29 Jan 2016 17:21:09 5284 Ko
FP+-Series-Voltage-Peak-Limiter-Load-vs-Power-Tables.pdf 29 Jan 2016 17:21:07 198 Ko
IPD-1200-AE-Sheet.pdf 29 Jan 2016 17:21:07 119 Ko
IPD-1200-Current-Draw-&-Thermal-Dissipation.pdf 29 Jan 2016 17:21:07 395 Ko
IPD-2400-AE-Sheet.pdf 29 Jan 2016 17:21:07 122 Ko
IPD-2400-Current-Draw-&-Thermal-Dissipation.pdf 29 Jan 2016 17:21:07 397 Ko
IPD-Series-Operation-Manual.pdf 29 Jan 2016 17:21:08 2510 Ko
Lake-Controller-Manual.pdf 29 Jan 2016 17:21:13 15912 Ko
Lake-Controller-on-the-iPad.pdf 29 Jan 2016 17:21:09 338 Ko
LM-Series-Operation-Manual.pdf 29 Jan 2016 17:21:13 11703 Ko
LUCIA-120-2-AE-Sheet.pdf 29 Jan 2016 17:21:13 71 Ko
LUCIA-120-2-Current-Draw-&-Thermal-Dissipation.pdf 29 Jan 2016 17:21:13 177 Ko
LUCIA-120-2M-Current-Draw-&-Thermal-Dissipation.pdf 29 Jan 2016 17:21:13 179 Ko
LUCIA-240-2-AE-Sheet.pdf 29 Jan 2016 17:21:13 71 Ko
LUCIA-240-2-Current-Draw-&-Thermal-Dissipation.pdf 29 Jan 2016 17:21:13 176 Ko
LUCIA-240-2M-Current-Draw-&-Thermal-Dissipation.pdf 29 Jan 2016 17:21:13 178 Ko
LUCIA-Accessories-Data-Sheet.pdf 29 Jan 2016 17:21:13 862 Ko
LUCIA-Control-Panel-Quick-Start-Guide.pdf 29 Jan 2016 17:21:13 257 Ko
LUCIA-Operation-Manual.pdf 29 Jan 2016 17:21:14 2386 Ko
LUCIA-Pole-Mound-Quick-Start-Guide.pdf 29 Jan 2016 17:21:14 111 Ko
LUCIA-Quick-Start-Guide.pdf 29 Jan 2016 17:21:14 1969 Ko
LUCIA-Rack-Mount-Quick-Start-Guide.pdf 29 Jan 2016 17:21:14 122 Ko
NLB-60E-NomadLink-Bridge-and-Network-Controller.pdf 29 Jan 2016 17:21:17 7259 Ko
NLB-60E-NomadLink-Network-Control-and-Monitoring-Software.pdf 29 Jan 2016 17:21:15 1683 Ko
PLM+-Series-Quick-Start-Guide.pdf 29 Jan 2016 17:21:15 1673 Ko
PLM-10000Q-AES-Sheet.pdf 29 Jan 2016 17:21:15 73 Ko
PLM-10000Q-Current-Draw-and-Thermal-Dissipation.pdf 29 Jan 2016 17:21:15 164 Ko
PLM-14000Q-Current-Draw-and-Thermal-Dissipation.pdf 29 Jan 2016 17:21:15 178 Ko
PLM-20000Q-AE-Sheet.pdf 29 Jan 2016 17:21:15 82 Ko
PLM-20000Q-Current-Draw-and-Thermal-Dissipation.pdf 29 Jan 2016 17:21:16 84 Ko
PLM-Series-Network-Configuration.pdf 29 Jan 2016 17:21:16 1160 Ko
PLM-Series-Operation-Manual.pdf 29 Jan 2016 17:21:20 13345 Ko
PLM-Series-Quick-Start-&-Field-Reference-Guide.pdf 29 Jan 2016 17:21:19 6873 Ko
Technology-Brief---Protection-Features-Explained.pdf 29 Jan 2016 17:21:19 161 Ko
Technology-Briefs---Understanding-Relationships-Voltage-Current-Impedance.pdf 29 Jan 2016 17:21:19 543 Ko

MORE...
3rd-party-control-for-IPD-Series.zip 29 Jan 2016 17:20:40 206 Ko
Certifications-LABGRUPPEN-C-Series.zip 29 Jan 2016 17:20:41 3100 Ko
Certifications-LABGRUPPEN-D-Series.zip 29 Jan 2016 17:20:41 1580 Ko
Certifications-LABGRUPPEN-E.zip 29 Jan 2016 17:20:41 374 Ko
Certifications-LABGRUPPEN-FP.zip 29 Jan 2016 17:20:42 3664 Ko
Certifications-LABGRUPPEN-IPD.zip 29 Jan 2016 17:20:42 373 Ko
Certifications-LABGRUPPEN-PLM.zip 29 Jan 2016 17:20:43 3533 Ko


DISTRIBUTEUR

Adamson, Lab.Gruppen, Lake, WaveCapture,
DiGiCo, Calrec

MARQUES

Adamson, Lab.Gruppen
Digico, Digigrid, Calrec
Lake, Wavecapture

SUPPORT TECHNIQUE

Formations

OCCASIONS

Amplis
Enceintes
Systèmes
Traitement du signal

SOCIAL

Contact
Newsletter


ZONE EURO MOSELLE
2 rue de la Gillière
NORROY LE VENEUR
57140 FRANCE
Tel +33 (0) 387 30 00 00
Fax +33 (0) 387 32 83 25
dv2@dv2.fr